Погода в Сеннаре

Судан     13°32′41″N   33°36′34″E
темп.,
°C
ветер,
м/с
пор.,
м/с
влажн.,
%
обл.,
%
осадки,
мм/ч
давл.,
гПа
погр.,
м
24 июля, сб
сб2423:00+27юз5669100 0.1 1010364
02:00+26ю51068100 1.3 1009455
05:00+26ююз7975100 0.8 1009563
08:00+26ююз6775100 0.8 1010541
11:00+29ююз675891 0.0 10101131
14:00+31ююз7750100 0.3 10081834
17:00+28ю7864100 4.1 1008682
20:00+23в101194100 24.8 1010461
25 июля, вс
вс2523:00+23ююз4580100 35.3 1011101
02:00+23ююз7978100 35.3 1007199
05:00+23з127994 0.1 1010246
08:00+24ююз337684 0.5 1012391
11:00+27ююз776666 0.1 1011912
14:00+27юз776412 0.1 1009986
17:00+29юз665852 0.0 10081300
20:00+26ююз797380 0.0 1010535
26 июля, пн
пн2623:00+24ююз71081100 0.1 1011474
02:00+23ююз6118798 0.9 1011509
05:00+22ююз61186100 0.1 1012581
08:00+23ю71084100 0.1 1013724
11:00+24ююз8107793 0.1 1013763
14:00+26ююз896987 0.1 10121033
17:00+25ююз787198 0.1 1013983
20:00+23ююз71175100 0.1 1014661
27 июля, вт
вт2723:00+22ююз61181100 0.0 1014643
02:00+22ю6108395 0.0 1013628
05:00+21ююз61185100 0.1 1014537
08:00+22ююз7128387 0.1 1015566
11:00+27ююз896197 0.0 1013927
14:00+29юз665461 0.0 10111425
17:00+28юз555587 0.0 10111218
20:00+26ююз5667100 0.0 1012485
28 июля, ср
ср2823:00+24ююз477496 0.0 1013309
02:00+24ююз477849 0.0 1011317
05:00+23ююз59816 0.0 1012316
08:00+26ююз79675 0.0 1013645
11:00+30юз774912 0.0 10121545
14:00+33юз664127 0.0 10092002
17:00+33зюз554122 0.0 10081965
20:00+30ююз3551100 0.0 1010158